World > North America > United States > Ohio > Mount Union  

Mount Union, OH Hourly Weather Updates

Feedback E-mail the Weather

Quick Clicks

Mount Union, OH Weather Maps

°F °C°F °C
Mount Union Weather Map
UTC Time: 4/23/2024, 18:23
Your Time:

Mount Union, OH Regional Weather

Expires:202404231800;;247567
ASUS41 KCLE 231712
RWRCLE
OHIO REGIONAL WEATHER ROUNDUP
NATIONAL WEATHER SERVICE WILMINGTON, OH
100 PM EDT TUE APR 23 2024

NOTE: "FAIR" INDICATES FEW OR NO CLOUDS BELOW 12,000 FEET WITH NO
SIGNIFICANT WEATHER AND/OR OBSTRUCTIONS TO VISIBILITY.


OHZ009>014-019>023-028>033-038-089-231800-
   NORTHEAST OHIO
  
CITY           SKY/WX    TMP DP  RH WIND       PRES   REMARKS
CLE-HOPKINS    PTSUNNY   66  35  31 S22G37    29.86F                  
CLE-LAKEFRONT  FAIR      68  38  33 S23G33    29.86S                  
CUY CO. ARPT   NOT AVBL                                               
LORAIN-ELYRIA  NOT AVBL                                               
ASHTABULA      FAIR      64  34  32 S17G28    29.87F                  
AKRON-CANTON   CLOUDY    62  34  35 S23G32    29.93F                  
WOOSTER        FAIR      63  36  36 SW22G32   29.92F                  
MANSFIELD      FAIR      62  36  37 SW17G32   29.93R                  
YOUNGSTOWN     PTSUNNY   64  35  34 SW20G32   29.93F                  
$$
 

SKY/WX - Weather  TMP - Temperature  DP - Dew Point  RH - Humidity
WIND - Wind Direction/Speed PRES - Barometric Pressure VSB - Visibility
WCI - Wind Chill Index E13G22 Wind - East Wind 13 mph/Gusts of 22 mph

Trending Headlines

Trending Entertainment Headlines

Mount Union Radar Loop

Use the map search tool if you want to place a location marker on the radar map...

Mount Union Quick Facts

National Two Day Weather Forecast


E-mail the Mount Union Weather Forecast

Voice your opinion or tell us about page issues...